TAM3490 SBRF-SBFZ

Flight info

Callsign TAM3490
Flight time 0h 58m
Altitude 34000
Route IROSI UZ81 TENUB
Aircraft A319/M-SDE3FGHIRWY/LB1

Departure

Time 2026-05-05 21:29
Airport Recife/Guararapes - Gilberto Freyre International Airport (SBRF)

Arrival

Time 2026-05-05 22:27
Airport Pinto Martins International Airport (SBFZ)
Time Latitude Longitude Altitude Speed Heading
2026-05-05 21:06 -8.13088 -34.91926 46 ft 0 kts 72°
2026-05-05 21:20 -8.13093 -34.91942 46 ft 3 kts 70°
2026-05-05 21:20 -8.13102 -34.91964 46 ft 3 kts 65°
2026-05-05 21:20 -8.13113 -34.91985 44 ft 3 kts 52°
2026-05-05 21:20 -8.13128 -34.91999 45 ft 3 kts 11°
2026-05-05 21:21 -8.13138 -34.92000 44 ft 0 kts 342°
2026-05-05 21:23 -8.13128 -34.92003 45 ft 3 kts 342°
2026-05-05 21:23 -8.13099 -34.92013 46 ft 6 kts 342°
2026-05-05 21:23 -8.13052 -34.92029 48 ft 9 kts 342°
2026-05-05 21:23 -8.12983 -34.92051 46 ft 12 kts 342°
2026-05-05 21:24 -8.12887 -34.92083 49 ft 17 kts 341°
2026-05-05 21:24 -8.12769 -34.92123 46 ft 18 kts 342°
2026-05-05 21:24 -8.12651 -34.92162 49 ft 18 kts 342°
2026-05-05 21:24 -8.12532 -34.92201 49 ft 18 kts 342°
2026-05-05 21:25 -8.12407 -34.92242 47 ft 19 kts 342°
2026-05-05 21:25 -8.12290 -34.92281 47 ft 17 kts 341°
2026-05-05 21:25 -8.12171 -34.92320 44 ft 19 kts 342°
2026-05-05 21:25 -8.12037 -34.92364 39 ft 21 kts 341°
2026-05-05 21:26 -8.11896 -34.92411 40 ft 21 kts 342°
2026-05-05 21:26 -8.11754 -34.92458 39 ft 22 kts 342°
2026-05-05 21:26 -8.11623 -34.92504 43 ft 14 kts 333°
2026-05-05 21:26 -8.11602 -34.92518 43 ft 0 kts 325°
2026-05-05 21:27 -8.11600 -34.92519 43 ft 2 kts 325°
2026-05-05 21:27 -8.11579 -34.92536 44 ft 6 kts 320°
2026-05-05 21:27 -8.11538 -34.92571 45 ft 10 kts 319°
2026-05-05 21:28 -8.11476 -34.92625 45 ft 14 kts 319°
2026-05-05 21:28 -8.11478 -34.92696 44 ft 13 kts 182°
2026-05-05 21:28 -8.11535 -34.92680 44 ft 2 kts 162°
2026-05-05 21:28 -8.11736 -34.92613 42 ft 69 kts 161°
2026-05-05 21:29 -8.12413 -34.92390 49 ft 132 kts 162°
2026-05-05 21:29 -8.13427 -34.92059 232 ft 165 kts 161°
2026-05-05 21:29 -8.14538 -34.91703 877 ft 167 kts 161°
2026-05-05 21:29 -8.15662 -34.91345 1541 ft 175 kts 162°
2026-05-05 21:30 -8.16891 -34.90943 1917 ft 196 kts 161°
2026-05-05 21:30 -8.18228 -34.90504 2624 ft 203 kts 161°
2026-05-05 21:30 -8.19558 -34.90064 3552 ft 203 kts 160°
2026-05-05 21:30 -8.20760 -34.89202 4046 ft 230 kts 126°
2026-05-05 21:31 -8.21193 -34.87558 4569 ft 262 kts 89°
2026-05-05 21:31 -8.20583 -34.85755 4927 ft 281 kts 63°
2026-05-05 21:31 -8.19369 -34.84180 5560 ft 286 kts 51°
2026-05-05 21:31 -8.18022 -34.82726 6548 ft 288 kts 50°
2026-05-05 21:32 -8.16670 -34.81226 7461 ft 289 kts 52°
2026-05-05 21:32 -8.15376 -34.79667 8407 ft 288 kts 54°
2026-05-05 21:32 -8.14157 -34.78069 9381 ft 286 kts 57°
2026-05-05 21:32 -8.12990 -34.76439 10232 ft 290 kts 58°
2026-05-05 21:33 -8.11793 -34.74704 10482 ft 313 kts 58°
2026-05-05 21:33 -8.10359 -34.72937 10644 ft 340 kts 44°
2026-05-05 21:33 -8.08225 -34.71753 10987 ft 363 kts 19°
2026-05-05 21:33 -8.05673 -34.71559 11574 ft 376 kts 354°
2026-05-05 21:34 -8.03109 -34.72205 12236 ft 382 kts 346°
2026-05-05 21:34 -8.00580 -34.72955 12919 ft 384 kts 346°
2026-05-05 21:34 -7.98014 -34.73742 13608 ft 386 kts 346°
2026-05-05 21:34 -7.95436 -34.74554 14243 ft 389 kts 344°
2026-05-05 21:35 -7.92871 -34.75454 14811 ft 392 kts 342°
2026-05-05 21:35 -7.90301 -34.76426 15376 ft 395 kts 341°
2026-05-05 21:35 -7.87724 -34.77432 15917 ft 399 kts 340°
2026-05-05 21:35 -7.85126 -34.78449 16451 ft 402 kts 340°
2026-05-05 21:36 -7.82496 -34.79467 16974 ft 406 kts 341°
2026-05-05 21:36 -7.79918 -34.80668 17496 ft 411 kts 331°
2026-05-05 21:36 -7.77600 -34.82330 18013 ft 416 kts 320°
2026-05-05 21:36 -7.75605 -34.84459 18538 ft 420 kts 308°
2026-05-05 21:37 -7.74053 -34.86960 19017 ft 423 kts 297°
2026-05-05 21:37 -7.72752 -34.89634 19496 ft 425 kts 296°
2026-05-05 21:37 -7.71444 -34.92320 19917 ft 428 kts 297°
2026-05-05 21:37 -7.70119 -34.95026 20358 ft 431 kts 297°
2026-05-05 21:38 -7.68779 -34.97749 20788 ft 434 kts 297°
2026-05-05 21:38 -7.67429 -35.00478 21261 ft 435 kts 297°
2026-05-05 21:38 -7.66076 -35.03213 21674 ft 438 kts 297°
2026-05-05 21:38 -7.64714 -35.05978 22080 ft 440 kts 297°
2026-05-05 21:39 -7.63370 -35.08712 22506 ft 442 kts 297°
2026-05-05 21:39 -7.62002 -35.11497 22903 ft 444 kts 297°
2026-05-05 21:39 -7.60627 -35.14296 23312 ft 446 kts 297°
2026-05-05 21:39 -7.59246 -35.17108 23709 ft 447 kts 297°
2026-05-05 21:40 -7.57861 -35.19924 24036 ft 449 kts 297°
2026-05-05 21:40 -7.56471 -35.22749 24373 ft 450 kts 297°
2026-05-05 21:40 -7.55077 -35.25580 24717 ft 451 kts 296°
2026-05-05 21:40 -7.53677 -35.28423 25043 ft 452 kts 296°
2026-05-05 21:41 -7.52273 -35.31265 25363 ft 454 kts 296°
2026-05-05 21:41 -7.50866 -35.34114 25703 ft 454 kts 296°
2026-05-05 21:41 -7.49458 -35.36967 26039 ft 455 kts 296°
2026-05-05 21:41 -7.48045 -35.39827 26331 ft 457 kts 296°
2026-05-05 21:42 -7.46621 -35.42701 26632 ft 458 kts 296°
2026-05-05 21:42 -7.45199 -35.45569 26983 ft 457 kts 296°
2026-05-05 21:42 -7.43797 -35.48400 27307 ft 458 kts 296°
2026-05-05 21:42 -7.42174 -35.51172 27570 ft 460 kts 305°
2026-05-05 21:43 -7.40116 -35.53655 27773 ft 464 kts 314°
2026-05-05 21:43 -7.37682 -35.55814 28035 ft 466 kts 319°
2026-05-05 21:43 -7.35178 -35.57909 28297 ft 468 kts 319°
2026-05-05 21:43 -7.32669 -35.60018 28528 ft 470 kts 319°
2026-05-05 21:44 -7.30187 -35.62115 28767 ft 472 kts 319°
2026-05-05 21:44 -7.27662 -35.64255 29004 ft 473 kts 319°
2026-05-05 21:44 -7.25134 -35.66399 29234 ft 475 kts 319°
2026-05-05 21:44 -7.22595 -35.68546 29505 ft 475 kts 319°
2026-05-05 21:45 -7.20093 -35.70661 29851 ft 474 kts 319°
2026-05-05 21:45 -7.17567 -35.72792 30191 ft 473 kts 319°
2026-05-05 21:45 -7.15038 -35.74921 30498 ft 472 kts 319°
2026-05-05 21:45 -7.12513 -35.77043 30810 ft 471 kts 319°
2026-05-05 21:46 -7.09992 -35.79156 31124 ft 470 kts 319°
2026-05-05 21:46 -7.07469 -35.81256 31424 ft 469 kts 319°
2026-05-05 21:46 -7.04947 -35.83343 31714 ft 469 kts 319°
2026-05-05 21:46 -7.02457 -35.85405 32017 ft 468 kts 319°
2026-05-05 21:47 -6.99940 -35.87495 32348 ft 467 kts 319°
2026-05-05 21:47 -6.97430 -35.89581 32685 ft 466 kts 319°
2026-05-05 21:47 -6.94926 -35.91665 33028 ft 465 kts 319°
2026-05-05 21:47 -6.92435 -35.93741 33388 ft 464 kts 319°
2026-05-05 21:48 -6.89982 -35.95785 33742 ft 463 kts 319°
2026-05-05 21:48 -6.87498 -35.97861 33985 ft 463 kts 319°
2026-05-05 21:48 -6.82551 -36.02002 34038 ft 461 kts 318°
2026-05-05 21:49 -6.77605 -36.06126 34037 ft 460 kts 319°
2026-05-05 21:49 -6.72688 -36.10216 34035 ft 461 kts 319°
2026-05-05 21:50 -6.67747 -36.14333 34035 ft 461 kts 319°
2026-05-05 21:50 -6.62800 -36.18439 34024 ft 461 kts 319°
2026-05-05 21:51 -6.57854 -36.22545 34024 ft 461 kts 319°
2026-05-05 21:51 -6.52931 -36.26649 34024 ft 461 kts 318°
2026-05-05 21:52 -6.45543 -36.32798 34025 ft 461 kts 319°
2026-05-05 21:53 -6.40594 -36.36902 34023 ft 460 kts 319°
2026-05-05 21:53 -6.35651 -36.41013 34017 ft 460 kts 318°
2026-05-05 21:54 -6.30718 -36.45122 34015 ft 460 kts 318°
2026-05-05 21:54 -6.25825 -36.49213 34010 ft 460 kts 318°
2026-05-05 21:55 -6.20889 -36.53317 34010 ft 460 kts 319°
2026-05-05 21:55 -6.15950 -36.57410 34002 ft 460 kts 319°
2026-05-05 21:56 -6.11028 -36.61500 33997 ft 459 kts 319°
2026-05-05 21:56 -6.06126 -36.65564 33987 ft 459 kts 319°
2026-05-05 21:57 -6.01191 -36.69651 33987 ft 460 kts 319°
2026-05-05 21:57 -5.96253 -36.73744 33981 ft 460 kts 319°
2026-05-05 21:58 -5.91307 -36.77848 33978 ft 460 kts 319°
2026-05-05 21:58 -5.86401 -36.81917 33982 ft 461 kts 319°
2026-05-05 21:59 -5.81472 -36.86003 33978 ft 461 kts 319°
2026-05-05 21:59 -5.77358 -36.89414 33978 ft 461 kts 318°
2026-05-05 22:00 -5.71607 -36.94182 33983 ft 460 kts 318°
2026-05-05 22:00 -5.67474 -36.97608 33984 ft 460 kts 318°
2026-05-05 22:01 -5.62552 -37.01678 33983 ft 460 kts 318°
2026-05-05 22:01 -5.57610 -37.05767 33983 ft 459 kts 318°
2026-05-05 22:02 -5.52677 -37.09853 33982 ft 459 kts 318°
2026-05-05 22:02 -5.47739 -37.13931 33978 ft 459 kts 318°
2026-05-05 22:03 -5.42819 -37.17968 33977 ft 459 kts 319°
2026-05-05 22:03 -5.37823 -37.21963 33968 ft 459 kts 319°
2026-05-05 22:04 -5.32817 -37.25937 33960 ft 459 kts 319°
2026-05-05 22:04 -5.27823 -37.29936 33950 ft 459 kts 319°
2026-05-05 22:05 -5.22842 -37.33938 33943 ft 459 kts 319°
2026-05-05 22:05 -5.17895 -37.37927 33949 ft 459 kts 318°
2026-05-05 22:06 -5.12978 -37.42025 33951 ft 459 kts 317°
2026-05-05 22:06 -5.08094 -37.46153 33960 ft 458 kts 317°
2026-05-05 22:07 -5.03226 -37.50244 33983 ft 458 kts 317°
2026-05-05 22:07 -4.98317 -37.54341 33982 ft 458 kts 317°
2026-05-05 22:08 -4.93414 -37.58434 33976 ft 458 kts 317°
2026-05-05 22:08 -4.88506 -37.62532 33979 ft 459 kts 317°
2026-05-05 22:09 -4.83623 -37.66606 33981 ft 459 kts 317°
2026-05-05 22:09 -4.78707 -37.70708 33980 ft 459 kts 317°
2026-05-05 22:10 -4.73804 -37.74805 33981 ft 459 kts 317°
2026-05-05 22:10 -4.68927 -37.78882 33982 ft 459 kts 317°
2026-05-05 22:11 -4.64014 -37.82985 33984 ft 459 kts 317°
2026-05-05 22:11 -4.59089 -37.87089 33986 ft 459 kts 317°
2026-05-05 22:12 -4.54209 -37.91164 33987 ft 460 kts 317°
2026-05-05 22:12 -4.49284 -37.95276 33986 ft 460 kts 317°
2026-05-05 22:13 -4.43983 -37.98918 33988 ft 464 kts 326°
2026-05-05 22:13 -4.38496 -38.02261 33991 ft 464 kts 325°
2026-05-05 22:14 -4.32987 -38.05640 33989 ft 464 kts 325°
2026-05-05 22:14 -4.27466 -38.09024 32920 ft 468 kts 325°
2026-05-05 22:14 -4.25415 -38.10325 32035 ft 474 kts 324°
2026-05-05 22:15 -4.22633 -38.12155 30888 ft 480 kts 324°
2026-05-05 22:15 -4.19837 -38.14043 29703 ft 487 kts 324°
2026-05-05 22:15 -4.17021 -38.15962 28367 ft 492 kts 324°
2026-05-05 22:15 -4.14213 -38.17872 27085 ft 496 kts 324°
2026-05-05 22:16 -4.11349 -38.19807 25687 ft 494 kts 325°
2026-05-05 22:16 -4.08492 -38.21719 24137 ft 491 kts 326°
2026-05-05 22:16 -4.05655 -38.23605 22550 ft 487 kts 327°
2026-05-05 22:16 -4.02840 -38.25468 21090 ft 479 kts 327°
2026-05-05 22:17 -4.00075 -38.27294 19718 ft 471 kts 327°
2026-05-05 22:17 -3.97392 -38.29074 18444 ft 464 kts 326°
2026-05-05 22:17 -3.94957 -38.31163 17088 ft 459 kts 313°
2026-05-05 22:17 -3.93133 -38.33732 16218 ft 445 kts 298°
2026-05-05 22:18 -3.91956 -38.36500 15797 ft 422 kts 288°
2026-05-05 22:18 -3.91143 -38.39302 14827 ft 417 kts 285°
2026-05-05 22:18 -3.90379 -38.42085 13884 ft 412 kts 285°
2026-05-05 22:18 -3.89646 -38.44846 12808 ft 407 kts 284°
2026-05-05 22:19 -3.88931 -38.47571 11762 ft 401 kts 284°
2026-05-05 22:19 -3.88238 -38.50224 10752 ft 396 kts 284°
2026-05-05 22:19 -3.87545 -38.52874 9794 ft 390 kts 284°
2026-05-05 22:19 -3.86868 -38.55448 9218 ft 372 kts 284°
2026-05-05 22:20 -3.86228 -38.57915 8504 ft 360 kts 284°
2026-05-05 22:20 -3.85619 -38.60294 7989 ft 345 kts 284°
2026-05-05 22:20 -3.85035 -38.62578 7495 ft 332 kts 284°
2026-05-05 22:20 -3.84476 -38.64757 7031 ft 321 kts 283°
2026-05-05 22:21 -3.83927 -38.66897 6571 ft 311 kts 283°
2026-05-05 22:21 -3.83400 -38.68963 6111 ft 301 kts 283°
2026-05-05 22:21 -3.82723 -38.70902 5672 ft 290 kts 303°
2026-05-05 22:21 -3.81278 -38.72211 5255 ft 276 kts 338°
2026-05-05 22:22 -3.79458 -38.72470 4859 ft 259 kts 11°
2026-05-05 22:22 -3.77756 -38.72096 4492 ft 250 kts 19°
2026-05-05 22:22 -3.76114 -38.71591 4094 ft 243 kts 21°
2026-05-05 22:22 -3.74548 -38.71008 3709 ft 236 kts 34°
2026-05-05 22:23 -3.73548 -38.69823 3305 ft 221 kts 76°
2026-05-05 22:23 -3.73563 -38.68357 2820 ft 206 kts 109°
2026-05-05 22:23 -3.73943 -38.67017 2545 ft 193 kts 108°
2026-05-05 22:23 -3.74283 -38.65754 2259 ft 182 kts 108°
2026-05-05 22:24 -3.74597 -38.64585 2033 ft 171 kts 108°
2026-05-05 22:24 -3.74895 -38.63473 1817 ft 159 kts 107°
2026-05-05 22:24 -3.75173 -38.62435 1623 ft 148 kts 107°
2026-05-05 22:24 -3.75430 -38.61476 1437 ft 139 kts 108°
2026-05-05 22:25 -3.75675 -38.60563 1259 ft 134 kts 106°
2026-05-05 22:25 -3.75914 -38.59672 1089 ft 132 kts 107°
2026-05-05 22:25 -3.76150 -38.58790 932 ft 130 kts 107°
2026-05-05 22:25 -3.76383 -38.57921 777 ft 133 kts 106°
2026-05-05 22:26 -3.76624 -38.57023 621 ft 134 kts 106°
2026-05-05 22:26 -3.76865 -38.56123 460 ft 133 kts 106°
2026-05-05 22:26 -3.77103 -38.55237 283 ft 131 kts 106°
2026-05-05 22:26 -3.77337 -38.54366 115 ft 128 kts 105°
2026-05-05 22:27 -3.77539 -38.53604 94 ft 93 kts 105°
2026-05-05 22:27 -3.77669 -38.53123 92 ft 60 kts 105°
2026-05-05 22:27 -3.77770 -38.52744 93 ft 53 kts 105°
2026-05-05 22:27 -3.77853 -38.52620 90 ft 18 kts 231°
2026-05-05 22:28 -3.77909 -38.52732 91 ft 18 kts 247°
2026-05-05 22:28 -3.77893 -38.52857 93 ft 18 kts 285°
2026-05-05 22:28 -3.77859 -38.52979 92 ft 19 kts 285°
2026-05-05 22:28 -3.77825 -38.53108 92 ft 20 kts 285°
2026-05-05 22:29 -3.77788 -38.53245 91 ft 21 kts 285°
2026-05-05 22:29 -3.77752 -38.53382 93 ft 20 kts 284°
2026-05-05 22:29 -3.77717 -38.53516 90 ft 17 kts 284°
2026-05-05 22:29 -3.77687 -38.53622 90 ft 16 kts 286°
2026-05-05 22:30 -3.77660 -38.53729 91 ft 15 kts 274°
2026-05-05 22:30 -3.77699 -38.53820 93 ft 12 kts 240°
2026-05-05 22:30 -3.77763 -38.53827 93 ft 12 kts 140°
2026-05-05 22:30 -3.77804 -38.53789 92 ft 1 kts 137°
2026-05-05 22:31 -3.77814 -38.53779 91 ft 3 kts 137°
2026-05-05 22:31 -3.77838 -38.53775 91 ft 4 kts 201°
2026-05-05 22:31 -3.77862 -38.53793 93 ft 5 kts 217°
2026-05-05 22:31 -3.77896 -38.53819 91 ft 7 kts 217°
2026-05-05 22:32 -3.77903 -38.53825 91 ft 0 kts 217°
2026-05-05 22:56 -3.77893 -38.53817 92 ft 3 kts 221°
2026-05-05 22:56 -3.77876 -38.53801 91 ft 3 kts 234°
2026-05-05 22:56 -3.77866 -38.53781 91 ft 3 kts 267°
2026-05-05 22:56 -3.77869 -38.53765 90 ft 1 kts 312°
2026-05-05 22:57 -3.77872 -38.53762 90 ft 0 kts 312°
2026-05-05 23:00 -3.77867 -38.53768 93 ft 4 kts 313°
2026-05-05 23:00 -3.77827 -38.53794 94 ft 10 kts 330°
2026-05-05 23:00 -3.77757 -38.53838 93 ft 13 kts 315°
2026-05-05 23:01 -3.77726 -38.53917 93 ft 12 kts 284°
2026-05-05 23:01 -3.77703 -38.54004 93 ft 13 kts 285°
2026-05-05 23:01 -3.77678 -38.54095 93 ft 14 kts 285°
2026-05-05 23:01 -3.77653 -38.54188 93 ft 14 kts 284°
2026-05-05 23:02 -3.77630 -38.54277 94 ft 13 kts 284°
2026-05-05 23:02 -3.77595 -38.54361 93 ft 13 kts 322°
2026-05-05 23:02 -3.77505 -38.54384 95 ft 14 kts 353°
2026-05-05 23:02 -3.77435 -38.54376 96 ft 0 kts 14°
2026-05-05 23:03 -3.77400 -38.54366 95 ft 10 kts 14°
2026-05-05 23:03 -3.77351 -38.54322 96 ft 10 kts 85°
2026-05-05 23:03 -3.77379 -38.54204 97 ft 42 kts 105°
2026-05-05 23:04 -3.77518 -38.53684 94 ft 110 kts 105°
2026-05-05 23:04 -3.77766 -38.52764 108 ft 159 kts 105°
2026-05-05 23:04 -3.78067 -38.51666 577 ft 167 kts 107°
2026-05-05 23:04 -3.78388 -38.50538 1205 ft 169 kts 105°
2026-05-05 23:05 -3.78719 -38.49371 1679 ft 183 kts 107°
2026-05-05 23:05 -3.79090 -38.48064 1970 ft 206 kts 107°
2026-05-05 23:05 -3.79687 -38.46673 2257 ft 231 kts 131°
2026-05-05 23:05 -3.81113 -38.45835 2733 ft 251 kts 169°
2026-05-05 23:06 -3.82859 -38.45910 3541 ft 259 kts 189°
2026-05-05 23:06 -3.84622 -38.46359 4437 ft 264 kts 194°
2026-05-05 23:06 -3.86397 -38.46886 5309 ft 267 kts 193°
2026-05-05 23:06 -3.88218 -38.47388 5852 ft 274 kts 191°
2026-05-05 23:07 -3.90073 -38.47833 6713 ft 275 kts 189°
2026-05-05 23:07 -3.91955 -38.48231 7521 ft 278 kts 187°
2026-05-05 23:07 -3.93871 -38.48598 8313 ft 282 kts 187°
2026-05-05 23:07 -3.95748 -38.49264 9054 ft 295 kts 210°
2026-05-05 23:08 -3.97138 -38.50813 9787 ft 309 kts 242°
2026-05-05 23:08 -3.97781 -38.52917 10240 ft 327 kts 256°
2026-05-05 23:08 -3.98265 -38.55226 10450 ft 351 kts 258°
2026-05-05 23:08 -3.98721 -38.57715 10605 ft 373 kts 259°
2026-05-05 23:09 -3.99178 -38.60317 11043 ft 383 kts 259°
2026-05-05 23:09 -3.99648 -38.62960 11649 ft 388 kts 258°
2026-05-05 23:09 -4.00131 -38.65597 12265 ft 391 kts 258°
2026-05-05 23:09 -4.00641 -38.68284 12912 ft 394 kts 258°
2026-05-05 23:10 -4.01169 -38.70999 13521 ft 398 kts 257°
2026-05-05 23:10 -4.01708 -38.73733 14079 ft 402 kts 257°
2026-05-05 23:10 -4.02252 -38.76489 14623 ft 405 kts 257°
2026-05-05 23:10 -4.02799 -38.79270 15168 ft 408 kts 258°
2026-05-05 23:11 -4.03346 -38.82071 15706 ft 410 kts 258°
2026-05-05 23:11 -4.03892 -38.84892 16246 ft 413 kts 258°
2026-05-05 23:11 -4.04431 -38.87693 16776 ft 416 kts 258°
2026-05-05 23:11 -4.05000 -38.90541 17304 ft 418 kts 255°
2026-05-05 23:12 -4.05919 -38.93312 17822 ft 419 kts 245°
2026-05-05 23:12 -4.07230 -38.95935 18329 ft 422 kts 240°
2026-05-05 23:12 -4.08594 -38.98545 18797 ft 424 kts 241°
2026-05-05 23:12 -4.09966 -39.01185 19242 ft 426 kts 241°
2026-05-05 23:13 -4.11331 -39.03824 19668 ft 429 kts 241°
2026-05-05 23:13 -4.12692 -39.06461 20091 ft 431 kts 242°
2026-05-05 23:13 -4.14075 -39.09139 20504 ft 433 kts 242°
2026-05-05 23:13 -4.15467 -39.11831 20910 ft 435 kts 242°
2026-05-05 23:14 -4.16865 -39.14533 21335 ft 437 kts 242°
2026-05-05 23:14 -4.17792 -39.16325 21615 ft 437 kts 242°
2026-05-05 23:14 -4.19651 -39.19924 22133 ft 440 kts 242°
2026-05-05 23:14 -4.21061 -39.22652 22510 ft 442 kts 242°
2026-05-05 23:15 -4.22485 -39.25395 22878 ft 444 kts 242°
2026-05-05 23:15 -4.23427 -39.27209 23127 ft 445 kts 242°
2026-05-05 23:15 -4.24857 -39.29967 23471 ft 447 kts 242°
2026-05-05 23:15 -4.26294 -39.32744 23779 ft 449 kts 242°
2026-05-05 23:16 -4.27732 -39.35526 24074 ft 450 kts 242°
2026-05-05 23:16 -4.29170 -39.38315 24393 ft 451 kts 242°
2026-05-05 23:16 -4.30612 -39.41109 24695 ft 452 kts 242°
2026-05-05 23:16 -4.32065 -39.43913 24984 ft 453 kts 242°
2026-05-05 23:17 -4.33525 -39.46730 25267 ft 454 kts 242°
2026-05-05 23:17 -4.34990 -39.49530 25543 ft 455 kts 240°
2026-05-05 23:17 -4.36730 -39.52128 25834 ft 456 kts 231°
2026-05-05 23:17 -4.38898 -39.54445 26115 ft 457 kts 221°
2026-05-05 23:18 -4.41429 -39.56392 26404 ft 458 kts 213°
2026-05-05 23:18 -4.44093 -39.58161 26674 ft 459 kts 213°
2026-05-05 23:18 -4.46753 -39.59934 26940 ft 460 kts 213°
2026-05-05 23:18 -4.49416 -39.61717 27192 ft 461 kts 214°
2026-05-05 23:19 -4.52085 -39.63506 27447 ft 462 kts 214°
2026-05-05 23:19 -4.54760 -39.65301 27698 ft 463 kts 214°
2026-05-05 23:19 -4.57436 -39.67097 27944 ft 465 kts 214°
2026-05-05 23:19 -4.60125 -39.68900 28191 ft 466 kts 214°
2026-05-05 23:20 -4.62822 -39.70707 28430 ft 467 kts 214°
2026-05-05 23:20 -4.65532 -39.72521 28662 ft 468 kts 214°
2026-05-05 23:20 -4.68213 -39.74314 28903 ft 468 kts 214°
2026-05-05 23:20 -4.70921 -39.76125 29238 ft 467 kts 214°
2026-05-05 23:21 -4.73619 -39.77930 29597 ft 465 kts 214°
2026-05-05 23:21 -4.76308 -39.79729 29952 ft 464 kts 214°
2026-05-05 23:21 -4.78991 -39.81531 30281 ft 462 kts 214°
2026-05-05 23:21 -4.81665 -39.83326 30590 ft 461 kts 214°
2026-05-05 23:22 -4.84326 -39.85109 30897 ft 459 kts 214°
2026-05-05 23:22 -4.86989 -39.86891 31180 ft 459 kts 214°
2026-05-05 23:22 -4.89613 -39.88648 31464 ft 458 kts 214°
2026-05-05 23:22 -4.92266 -39.90429 31758 ft 458 kts 214°
2026-05-05 23:23 -4.94913 -39.92210 32063 ft 457 kts 214°
2026-05-05 23:23 -4.97549 -39.93984 32364 ft 456 kts 214°
2026-05-05 23:23 -5.00189 -39.95754 32709 ft 455 kts 214°
2026-05-05 23:23 -5.02790 -39.97495 33014 ft 454 kts 214°
2026-05-05 23:24 -5.05423 -39.99258 33340 ft 453 kts 214°
2026-05-05 23:24 -5.08043 -40.01013 33671 ft 452 kts 214°
2026-05-05 23:24 -5.10664 -40.02772 33958 ft 452 kts 215°
2026-05-05 23:24 -5.13280 -40.04534 34028 ft 452 kts 214°
2026-05-05 23:25 -5.18475 -40.08024 34035 ft 451 kts 214°
2026-05-05 23:25 -5.23692 -40.11516 34035 ft 451 kts 214°
2026-05-05 23:26 -5.28913 -40.15023 34032 ft 450 kts 214°
2026-05-05 23:26 -5.34092 -40.18501 34032 ft 450 kts 214°
2026-05-05 23:27 -5.39308 -40.22002 34034 ft 451 kts 214°
2026-05-05 23:27 -5.44519 -40.25501 34030 ft 451 kts 214°
2026-05-05 23:28 -5.49736 -40.29002 34036 ft 450 kts 214°
2026-05-05 23:28 -5.54945 -40.32505 34041 ft 450 kts 214°
2026-05-05 23:29 -5.60117 -40.35985 34047 ft 449 kts 214°
2026-05-05 23:29 -5.65315 -40.39476 34048 ft 449 kts 214°
2026-05-05 23:30 -5.70480 -40.42947 34052 ft 449 kts 214°
2026-05-05 23:30 -5.75675 -40.46445 34052 ft 449 kts 214°
2026-05-05 23:31 -5.80841 -40.49917 34056 ft 448 kts 214°
2026-05-05 23:31 -5.86019 -40.53398 34055 ft 447 kts 214°
2026-05-05 23:32 -5.91184 -40.56879 34053 ft 446 kts 214°
2026-05-05 23:32 -5.96301 -40.60330 34049 ft 445 kts 214°
2026-05-05 23:33 -6.01443 -40.63802 34045 ft 445 kts 214°
2026-05-05 23:33 -6.06594 -40.67271 34046 ft 445 kts 214°
2026-05-05 23:34 -6.11739 -40.70732 34044 ft 445 kts 213°
2026-05-05 23:34 -6.16888 -40.74205 34050 ft 445 kts 213°
2026-05-05 23:35 -6.22009 -40.77651 34050 ft 444 kts 213°
2026-05-05 23:35 -6.27146 -40.81112 34052 ft 444 kts 213°
2026-05-05 23:36 -6.32284 -40.84575 34050 ft 444 kts 213°
2026-05-05 23:36 -6.37420 -40.88037 34061 ft 443 kts 213°
2026-05-05 23:37 -6.42507 -40.91466 34063 ft 443 kts 213°
2026-05-05 23:37 -6.47623 -40.94922 34063 ft 442 kts 213°
2026-05-05 23:38 -6.52728 -40.98375 34064 ft 441 kts 213°
2026-05-05 23:38 -6.57828 -41.01814 34061 ft 441 kts 213°
2026-05-05 23:39 -6.62927 -41.05256 34064 ft 441 kts 213°
2026-05-05 23:39 -6.67986 -41.08678 34064 ft 440 kts 213°
2026-05-05 23:40 -6.73076 -41.12116 34061 ft 440 kts 213°
2026-05-05 23:40 -6.78163 -41.15542 34056 ft 439 kts 213°
2026-05-05 23:41 -6.83234 -41.18974 34045 ft 439 kts 213°
2026-05-05 23:41 -6.88307 -41.22409 34051 ft 439 kts 213°
2026-05-05 23:42 -6.93349 -41.25819 34053 ft 438 kts 213°
2026-05-05 23:42 -6.98406 -41.29243 34046 ft 438 kts 213°
2026-05-05 23:43 -7.03471 -41.32661 34042 ft 438 kts 213°
2026-05-05 23:43 -7.08527 -41.36082 34031 ft 437 kts 213°
2026-05-05 23:44 -7.13539 -41.39486 34031 ft 437 kts 213°
2026-05-05 23:44 -7.18594 -41.42907 34031 ft 437 kts 213°
2026-05-05 23:45 -7.23631 -41.46324 34031 ft 436 kts 213°
2026-05-05 23:45 -7.28673 -41.49745 34030 ft 436 kts 213°
2026-05-05 23:46 -7.33720 -41.53160 34026 ft 436 kts 213°
2026-05-05 23:46 -7.38727 -41.56548 34022 ft 436 kts 213°
2026-05-05 23:47 -7.43757 -41.59963 34022 ft 436 kts 214°
2026-05-05 23:47 -7.48796 -41.63380 34019 ft 436 kts 214°
2026-05-05 23:48 -7.53843 -41.66801 34021 ft 436 kts 214°
2026-05-05 23:48 -7.58848 -41.70198 34018 ft 436 kts 214°
2026-05-05 23:49 -7.63893 -41.73624 34022 ft 436 kts 214°
2026-05-05 23:49 -7.68892 -41.77022 34026 ft 436 kts 214°
2026-05-05 23:50 -7.73938 -41.80453 34028 ft 436 kts 214°
2026-05-05 23:50 -7.78972 -41.83871 34024 ft 435 kts 214°
2026-05-05 23:51 -7.83973 -41.87275 34025 ft 436 kts 214°
2026-05-05 23:51 -7.89005 -41.90697 34026 ft 436 kts 214°
2026-05-05 23:52 -7.94036 -41.94117 34034 ft 436 kts 214°
2026-05-05 23:52 -7.99078 -41.97547 34035 ft 435 kts 214°
2026-05-05 23:53 -8.04079 -42.00952 34034 ft 436 kts 214°
2026-05-05 23:53 -8.09116 -42.04378 34035 ft 436 kts 214°
2026-05-05 23:54 -8.14112 -42.07781 34034 ft 435 kts 214°
2026-05-05 23:54 -8.19145 -42.11204 34037 ft 435 kts 214°
2026-05-05 23:55 -8.24161 -42.14625 34034 ft 434 kts 214°
2026-05-05 23:55 -8.29136 -42.18027 34033 ft 434 kts 214°
2026-05-05 23:56 -8.34151 -42.21442 34033 ft 434 kts 214°
2026-05-05 23:56 -8.39158 -42.24853 34029 ft 433 kts 214°
2026-05-05 23:57 -8.44124 -42.28245 34032 ft 433 kts 214°
2026-05-05 23:57 -8.49123 -42.31660 34033 ft 433 kts 214°
2026-05-05 23:58 -8.54127 -42.35070 34038 ft 433 kts 214°
2026-05-05 23:58 -8.59131 -42.38485 34041 ft 434 kts 214°
2026-05-05 23:59 -8.64125 -42.41904 34044 ft 433 kts 214°
2026-05-05 23:59 -8.69126 -42.45325 34044 ft 434 kts 214°
2026-05-06 00:00 -8.74101 -42.48721 34046 ft 433 kts 214°
2026-05-06 00:00 -8.79100 -42.52138 34047 ft 433 kts 214°
2026-05-06 00:01 -8.83129 -42.54895 34050 ft 433 kts 214°
2026-05-06 00:01 -8.88033 -42.58251 34048 ft 433 kts 214°
2026-05-06 00:02 -8.93082 -42.61708 34043 ft 433 kts 214°
2026-05-06 00:02 -8.98074 -42.65124 34045 ft 433 kts 214°
2026-05-06 00:03 -9.03042 -42.68525 34047 ft 433 kts 214°
2026-05-06 00:03 -9.08044 -42.71944 34049 ft 433 kts 214°
2026-05-06 00:04 -9.12195 -42.74790 34053 ft 433 kts 214°
2026-05-06 00:04 -9.17197 -42.78217 34055 ft 433 kts 214°
2026-05-06 00:05 -9.24681 -42.83358 34052 ft 432 kts 215°
2026-05-06 00:06 -9.29626 -42.86756 34050 ft 432 kts 215°
2026-05-06 00:06 -9.34610 -42.90178 34049 ft 432 kts 214°
2026-05-06 00:07 -9.39592 -42.93601 34048 ft 432 kts 215°
2026-05-06 00:07 -9.44570 -42.97016 34059 ft 432 kts 214°
2026-05-06 00:08 -9.49553 -43.00430 34058 ft 432 kts 214°
2026-05-06 00:08 -9.54493 -43.03825 34049 ft 431 kts 215°
2026-05-06 00:09 -9.59456 -43.07242 34048 ft 431 kts 215°
2026-05-06 00:09 -9.64422 -43.10664 34048 ft 431 kts 215°
2026-05-06 00:10 -9.69391 -43.14081 34058 ft 431 kts 214°
2026-05-06 00:10 -9.74350 -43.17502 34059 ft 430 kts 214°
2026-05-06 00:11 -9.79281 -43.20890 34061 ft 430 kts 214°
2026-05-06 00:11 -9.84236 -43.24298 34056 ft 430 kts 215°
2026-05-06 00:12 -9.89194 -43.27722 34052 ft 430 kts 215°
2026-05-06 00:12 -9.94108 -43.31112 34055 ft 429 kts 214°
2026-05-06 00:13 -9.99052 -43.34518 34053 ft 429 kts 214°
2026-05-06 00:13 -10.03995 -43.37928 34052 ft 428 kts 214°
2026-05-06 00:14 -10.08937 -43.41337 34054 ft 428 kts 214°
2026-05-06 00:14 -10.13849 -43.44725 34050 ft 428 kts 214°
2026-05-06 00:15 -10.18785 -43.48135 34056 ft 428 kts 214°
2026-05-06 00:15 -10.23677 -43.51515 34057 ft 427 kts 214°
2026-05-06 00:16 -10.28596 -43.54915 34052 ft 427 kts 214°
2026-05-06 00:16 -10.33522 -43.58325 34050 ft 427 kts 214°
2026-05-06 00:17 -10.38430 -43.61723 34046 ft 427 kts 214°
2026-05-06 00:17 -10.43313 -43.65094 34057 ft 426 kts 214°
2026-05-06 00:18 -10.48229 -43.68498 34056 ft 426 kts 214°
2026-05-06 00:18 -10.53097 -43.71871 34058 ft 426 kts 214°
2026-05-06 00:19 -10.57999 -43.75272 34058 ft 425 kts 214°
2026-05-06 00:19 -10.62892 -43.78674 34057 ft 425 kts 214°
2026-05-06 00:20 -10.67760 -43.82045 34060 ft 425 kts 214°
2026-05-06 00:20 -10.72654 -43.85424 34052 ft 424 kts 214°
2026-05-06 00:21 -10.77536 -43.88815 34057 ft 424 kts 214°
2026-05-06 00:21 -10.82393 -43.92188 34058 ft 424 kts 214°
2026-05-06 00:22 -10.87280 -43.95584 34058 ft 424 kts 214°
2026-05-06 00:22 -10.92126 -43.98956 34060 ft 424 kts 214°
2026-05-06 00:23 -10.96998 -44.02347 34060 ft 423 kts 214°
2026-05-06 00:23 -11.01868 -44.05721 34060 ft 423 kts 214°
2026-05-06 00:24 -11.06734 -44.09103 34054 ft 423 kts 214°
2026-05-06 00:24 -11.11596 -44.12490 34053 ft 423 kts 214°
2026-05-06 00:25 -11.16428 -44.15850 34054 ft 423 kts 213°
2026-05-06 00:25 -11.21351 -44.19143 34055 ft 423 kts 213°
2026-05-06 00:26 -11.26299 -44.22398 34054 ft 423 kts 213°
2026-05-06 00:26 -11.31243 -44.25675 34051 ft 423 kts 213°
2026-05-06 00:27 -11.36165 -44.28956 34057 ft 423 kts 213°
2026-05-06 00:27 -11.41061 -44.32223 34061 ft 423 kts 213°
2026-05-06 00:28 -11.45979 -44.35511 34062 ft 423 kts 213°
2026-05-06 00:28 -11.50900 -44.38798 34063 ft 422 kts 213°
2026-05-06 00:29 -11.55815 -44.42084 34066 ft 422 kts 213°
2026-05-06 00:29 -11.60736 -44.45364 34066 ft 422 kts 212°
2026-05-06 00:30 -11.65360 -44.48448 34070 ft 421 kts 213°
2026-05-06 00:30 -11.70241 -44.51707 34069 ft 421 kts 212°
2026-05-06 00:31 -11.75144 -44.54987 34069 ft 421 kts 213°
2026-05-06 00:31 -11.80026 -44.58255 34067 ft 421 kts 213°
2026-05-06 00:32 -11.84931 -44.61546 34085 ft 421 kts 213°
2026-05-06 00:32 -11.89828 -44.64835 34090 ft 420 kts 213°
2026-05-06 00:33 -11.94698 -44.68098 34091 ft 420 kts 213°
2026-05-06 00:33 -11.99584 -44.71372 34096 ft 419 kts 212°
2026-05-06 00:34 -12.04438 -44.74625 34102 ft 419 kts 213°
2026-05-06 00:34 -12.09332 -44.77907 34107 ft 418 kts 213°
2026-05-06 00:35 -12.14176 -44.81154 34100 ft 418 kts 213°
2026-05-06 00:35 -12.19033 -44.84414 34102 ft 418 kts 213°
2026-05-06 00:36 -12.23896 -44.87682 34097 ft 418 kts 213°
2026-05-06 00:36 -12.28748 -44.90951 34112 ft 417 kts 213°
2026-05-06 00:37 -12.33576 -44.94206 34112 ft 417 kts 213°
2026-05-06 00:37 -12.38423 -44.97463 34117 ft 416 kts 213°
2026-05-06 00:38 -12.43264 -45.00714 34111 ft 416 kts 213°
2026-05-06 00:38 -12.48094 -45.03966 34114 ft 415 kts 213°
2026-05-06 00:39 -12.52901 -45.07199 34122 ft 415 kts 213°
2026-05-06 00:39 -12.57728 -45.10454 34125 ft 414 kts 213°
2026-05-06 00:40 -12.62542 -45.13705 34126 ft 414 kts 213°
2026-05-06 00:40 -12.67352 -45.16950 34122 ft 413 kts 213°
2026-05-06 00:41 -12.72127 -45.20169 34116 ft 413 kts 213°
2026-05-06 00:41 -12.76936 -45.23422 34114 ft 413 kts 213°
2026-05-06 00:42 -12.81751 -45.26676 34122 ft 413 kts 213°
2026-05-06 00:42 -12.86037 -45.29569 34125 ft 413 kts 213°
2026-05-06 00:43 -12.90838 -45.32809 34123 ft 412 kts 213°
2026-05-06 00:43 -12.95632 -45.36051 34121 ft 412 kts 213°
2026-05-06 00:44 -13.00423 -45.39291 34116 ft 412 kts 213°
2026-05-06 00:44 -13.05178 -45.42507 34120 ft 412 kts 213°
2026-05-06 00:45 -13.09972 -45.45759 34108 ft 412 kts 213°
2026-05-06 00:45 -13.14753 -45.49009 34126 ft 412 kts 213°
2026-05-06 00:46 -13.19540 -45.52252 34126 ft 412 kts 213°
2026-05-06 00:46 -13.24322 -45.55493 34134 ft 411 kts 213°
2026-05-06 00:47 -13.29067 -45.58715 34124 ft 411 kts 213°
2026-05-06 00:47 -13.33875 -45.61921 34119 ft 411 kts 211°
2026-05-06 00:48 -13.38841 -45.64848 34115 ft 411 kts 209°
2026-05-06 00:48 -13.43829 -45.67656 34126 ft 411 kts 209°
2026-05-06 00:49 -13.48822 -45.70528 34138 ft 411 kts 210°
2026-05-06 00:49 -13.53782 -45.73440 34132 ft 410 kts 210°
2026-05-06 00:50 -13.57905 -45.75869 34131 ft 410 kts 210°
2026-05-06 00:50 -13.63671 -45.79245 34124 ft 410 kts 210°
2026-05-06 00:51 -13.67805 -45.81662 34130 ft 410 kts 210°
2026-05-06 00:51 -13.72773 -45.84575 34124 ft 411 kts 210°
2026-05-06 00:52 -13.78500 -45.87934 34126 ft 411 kts 210°
2026-05-06 00:52 -13.82670 -45.90379 34128 ft 411 kts 210°
2026-05-06 00:53 -13.87613 -45.93275 34138 ft 411 kts 210°
2026-05-06 00:53 -13.92586 -45.96197 34137 ft 411 kts 210°
2026-05-06 00:54 -13.97555 -45.99116 34129 ft 411 kts 210°
2026-05-06 00:54 -14.02531 -46.02047 34132 ft 412 kts 210°
2026-05-06 00:55 -14.07513 -46.04979 34147 ft 411 kts 210°
2026-05-06 00:55 -14.12461 -46.07890 34147 ft 411 kts 210°
2026-05-06 00:56 -14.17446 -46.10826 34142 ft 411 kts 210°
2026-05-06 00:56 -14.22390 -46.13747 34133 ft 411 kts 210°
2026-05-06 00:57 -14.27365 -46.16679 34142 ft 411 kts 210°
2026-05-06 00:57 -14.32307 -46.19606 34131 ft 411 kts 210°
2026-05-06 00:58 -14.37271 -46.22546 34150 ft 411 kts 210°
2026-05-06 00:58 -14.42247 -46.25483 34137 ft 411 kts 210°
2026-05-06 00:59 -14.47214 -46.28422 34132 ft 411 kts 210°
2026-05-06 00:59 -14.52184 -46.31365 34130 ft 411 kts 210°
2026-05-06 01:00 -14.57106 -46.34288 34133 ft 411 kts 210°
2026-05-06 01:00 -14.61723 -46.37761 34141 ft 413 kts 224°
2026-05-06 01:01 -14.65467 -46.42279 34145 ft 414 kts 227°
2026-05-06 01:01 -14.69175 -46.46791 34134 ft 414 kts 227°
2026-05-06 01:02 -14.72912 -46.51330 34136 ft 414 kts 227°
2026-05-06 01:02 -14.76639 -46.55861 34139 ft 413 kts 227°
2026-05-06 01:03 -14.80360 -46.60400 34123 ft 414 kts 227°
2026-05-06 01:03 -14.84070 -46.64929 34122 ft 414 kts 227°
2026-05-06 01:04 -14.87780 -46.69460 34118 ft 415 kts 227°
2026-05-06 01:04 -14.91513 -46.74025 34125 ft 415 kts 227°
2026-05-06 01:05 -14.95240 -46.78588 34127 ft 415 kts 227°
2026-05-06 01:05 -14.98970 -46.83141 34131 ft 415 kts 227°
2026-05-06 01:06 -15.02678 -46.87669 34138 ft 415 kts 227°
2026-05-06 01:06 -15.06409 -46.92235 34150 ft 415 kts 227°
2026-05-06 01:07 -15.10134 -46.96811 34163 ft 415 kts 227°
2026-05-06 01:07 -15.13833 -47.01354 34139 ft 415 kts 227°
2026-05-06 01:08 -15.17564 -47.05928 34137 ft 415 kts 227°
2026-05-06 01:08 -15.21294 -47.10502 34143 ft 415 kts 227°
2026-05-06 01:09 -15.24993 -47.15057 34149 ft 416 kts 227°
2026-05-06 01:09 -15.28721 -47.19655 34145 ft 416 kts 227°
2026-05-06 01:10 -15.32430 -47.24219 34152 ft 416 kts 227°
2026-05-06 01:10 -15.36159 -47.28808 34162 ft 415 kts 227°
2026-05-06 01:11 -15.39879 -47.33394 34170 ft 415 kts 227°
2026-05-06 01:11 -15.43592 -47.37984 34159 ft 415 kts 227°
2026-05-06 01:12 -15.47278 -47.42541 34157 ft 415 kts 227°
2026-05-06 01:12 -15.51515 -47.46548 34163 ft 412 kts 214°
2026-05-06 01:13 -15.56180 -47.50020 34163 ft 413 kts 214°
2026-05-06 01:13 -15.60816 -47.53492 34170 ft 413 kts 214°
2026-05-06 01:14 -15.67817 -47.58737 33504 ft 415 kts 214°
2026-05-06 01:14 -15.70145 -47.60529 32005 ft 420 kts 219°
2026-05-06 01:14 -15.72201 -47.62684 30324 ft 431 kts 230°
2026-05-06 01:15 -15.73868 -47.65321 28302 ft 444 kts 241°
2026-05-06 01:15 -15.75014 -47.68347 26336 ft 456 kts 252°
2026-05-06 01:15 -15.75529 -47.71641 24572 ft 466 kts 263°
2026-05-06 01:15 -15.75730 -47.75014 22718 ft 469 kts 264°
2026-05-06 01:16 -15.75945 -47.78381 21172 ft 467 kts 264°
2026-05-06 01:16 -15.76160 -47.81673 20621 ft 444 kts 264°
2026-05-06 01:16 -15.76362 -47.84774 20382 ft 416 kts 264°
2026-05-06 01:16 -15.76552 -47.87695 19965 ft 399 kts 264°
2026-05-06 01:17 -15.76736 -47.90501 19279 ft 391 kts 264°
2026-05-06 01:17 -15.76922 -47.93297 18505 ft 386 kts 264°
2026-05-06 01:17 -15.77105 -47.96059 17610 ft 381 kts 264°
2026-05-06 01:17 -15.77283 -47.98798 16740 ft 377 kts 264°
2026-05-06 01:18 -15.77456 -48.01492 16109 ft 368 kts 265°
2026-05-06 01:18 -15.77625 -48.04127 15430 ft 361 kts 265°
2026-05-06 01:18 -15.77791 -48.06690 14700 ft 358 kts 265°
2026-05-06 01:18 -15.77959 -48.09263 13970 ft 356 kts 265°
2026-05-06 01:19 -15.78121 -48.11780 13631 ft 339 kts 266°
2026-05-06 01:19 -15.78269 -48.14150 13490 ft 319 kts 266°
2026-05-06 01:19 -15.78408 -48.16380 13354 ft 301 kts 266°
2026-05-06 01:19 -15.78732 -48.18477 13023 ft 289 kts 246°
2026-05-06 01:20 -15.79866 -48.20129 12562 ft 280 kts 216°
2026-05-06 01:20 -15.81561 -48.20975 12061 ft 272 kts 187°
2026-05-06 01:20 -15.83424 -48.20937 11509 ft 267 kts 163°
2026-05-06 01:20 -15.85101 -48.20176 10977 ft 262 kts 142°
2026-05-06 01:21 -15.86430 -48.18907 10473 ft 258 kts 125°
2026-05-06 01:21 -15.87324 -48.17320 9974 ft 253 kts 109°
2026-05-06 01:21 -15.87744 -48.15551 9251 ft 255 kts 93°
2026-05-06 01:21 -15.87698 -48.13738 8991 ft 241 kts 85°
2026-05-06 01:22 -15.87592 -48.12093 8982 ft 221 kts 85°
2026-05-06 01:22 -15.87494 -48.10555 9026 ft 210 kts 85°
2026-05-06 01:22 -15.87398 -48.09056 9007 ft 207 kts 85°
2026-05-06 01:22 -15.87303 -48.07570 8861 ft 205 kts 86°
2026-05-06 01:23 -15.87211 -48.06121 8336 ft 199 kts 85°
2026-05-06 01:23 -15.87112 -48.04686 7626 ft 201 kts 86°
2026-05-06 01:23 -15.87030 -48.03234 6861 ft 204 kts 88°
2026-05-06 01:23 -15.86937 -48.01780 6279 ft 197 kts 86°
2026-05-06 01:24 -15.86828 -48.00374 5670 ft 194 kts 87°
2026-05-06 01:24 -15.86745 -47.98973 5102 ft 195 kts 88°
2026-05-06 01:24 -15.86653 -47.97566 4528 ft 196 kts 88°
2026-05-06 01:24 -15.86570 -47.96200 4380 ft 187 kts 87°
2026-05-06 01:25 -15.86481 -47.94777 4942 ft 207 kts 88°
2026-05-06 01:25 -15.86389 -47.93283 5420 ft 203 kts 88°
2026-05-06 01:25 -15.86251 -47.91849 5270 ft 200 kts 79°
2026-05-06 01:25 -15.85815 -47.90510 5133 ft 195 kts 70°
2026-05-06 01:26 -15.85267 -47.89203 5368 ft 200 kts 69°
2026-05-06 01:26 -15.84694 -47.87873 5616 ft 203 kts 69°
2026-05-06 01:26 -15.84093 -47.86538 5850 ft 206 kts 62°
2026-05-06 01:26 -15.83008 -47.85551 5954 ft 216 kts 27°
2026-05-06 01:27 -15.81511 -47.85232 5979 ft 222 kts 10°
2026-05-06 01:27 -15.79963 -47.85127 5977 ft 224 kts
2026-05-06 01:27 -15.78417 -47.85475 5978 ft 231 kts 343°
2026-05-06 01:27 -15.76932 -47.86088 5974 ft 232 kts 341°
2026-05-06 01:28 -15.75534 -47.86929 5973 ft 236 kts 319°
2026-05-06 01:28 -15.74599 -47.88342 5974 ft 247 kts 289°
2026-05-06 01:28 -15.74436 -47.90162 5978 ft 259 kts 256°
2026-05-06 01:28 -15.74879 -47.91995 5968 ft 264 kts 255°
2026-05-06 01:29 -15.75178 -47.93877 5975 ft 265 kts 261°
2026-05-06 01:29 -15.75390 -47.95777 5974 ft 265 kts 262°
2026-05-06 01:29 -15.75584 -47.97676 5973 ft 264 kts 262°
2026-05-06 01:29 -15.75785 -47.99545 5969 ft 264 kts 262°
2026-05-06 01:30 -15.76004 -48.01439 5968 ft 265 kts 261°
2026-05-06 01:30 -15.76238 -48.03331 5964 ft 264 kts 261°
2026-05-06 01:30 -15.76482 -48.05226 5958 ft 264 kts 261°
2026-05-06 01:30 -15.76731 -48.07119 5957 ft 265 kts 260°
2026-05-06 01:31 -15.76983 -48.09017 5953 ft 265 kts 261°
2026-05-06 01:31 -15.77236 -48.10905 5945 ft 264 kts 261°
2026-05-06 01:31 -15.77488 -48.12799 5941 ft 265 kts 260°
2026-05-06 01:31 -15.77740 -48.14694 5936 ft 265 kts 260°
2026-05-06 01:32 -15.77992 -48.16594 5929 ft 265 kts 260°
2026-05-06 01:32 -15.78243 -48.18493 5924 ft 265 kts 260°
2026-05-06 01:32 -15.78724 -48.20319 5917 ft 260 kts 234°
2026-05-06 01:32 -15.79986 -48.21528 5917 ft 246 kts 199°
2026-05-06 01:33 -15.81609 -48.21811 5914 ft 232 kts 169°
2026-05-06 01:33 -15.83111 -48.21472 5912 ft 211 kts 155°
2026-05-06 01:33 -15.84403 -48.20814 5919 ft 205 kts 143°
2026-05-06 01:33 -15.85509 -48.19905 5925 ft 201 kts 131°
2026-05-06 01:34 -15.86395 -48.18792 5926 ft 199 kts 121°
2026-05-06 01:34 -15.87044 -48.17521 5931 ft 199 kts 113°
2026-05-06 01:34 -15.87573 -48.16194 5938 ft 199 kts 104°
2026-05-06 01:34 -15.87710 -48.14787 5947 ft 199 kts 90°
2026-05-06 01:35 -15.87662 -48.13350 5946 ft 199 kts 88°
2026-05-06 01:35 -15.87578 -48.11912 5949 ft 199 kts 87°
2026-05-06 01:35 -15.87489 -48.10484 5983 ft 194 kts 87°
2026-05-06 01:35 -15.87404 -48.09156 5953 ft 177 kts 88°
2026-05-06 01:36 -15.87325 -48.07907 5962 ft 167 kts 88°
2026-05-06 01:36 -15.87253 -48.06783 5941 ft 145 kts 88°
2026-05-06 01:36 -15.87190 -48.05792 5833 ft 132 kts 88°
2026-05-06 01:36 -15.87132 -48.04877 5705 ft 126 kts 89°
2026-05-06 01:37 -15.87075 -48.03975 5561 ft 124 kts 89°
2026-05-06 01:37 -15.87016 -48.03032 5412 ft 135 kts 89°
2026-05-06 01:37 -15.86953 -48.02047 5244 ft 137 kts 88°
2026-05-06 01:37 -15.86889 -48.01054 5068 ft 137 kts 88°
2026-05-06 01:38 -15.86826 -48.00078 4885 ft 137 kts 88°
2026-05-06 01:38 -15.86763 -47.99089 4704 ft 137 kts 88°
2026-05-06 01:38 -15.86700 -47.98102 4532 ft 137 kts 88°
2026-05-06 01:38 -15.86637 -47.97116 4344 ft 137 kts 88°
2026-05-06 01:39 -15.86574 -47.96131 4165 ft 136 kts 87°
2026-05-06 01:39 -15.86511 -47.95151 3980 ft 138 kts 88°
2026-05-06 01:39 -15.86446 -47.94169 3771 ft 138 kts 87°
2026-05-06 01:39 -15.86381 -47.93178 3572 ft 138 kts 87°
2026-05-06 01:40 -15.86323 -47.92196 3469 ft 130 kts 87°
2026-05-06 01:40 -15.86284 -47.91628 3464 ft 104 kts 86°
2026-05-06 01:40 -15.86241 -47.90967 3476 ft 36 kts 86°
2026-05-06 01:40 -15.86302 -47.90798 3481 ft 19 kts 132°
2026-05-06 01:41 -15.86387 -47.90715 3482 ft 15 kts 171°
2026-05-06 01:41 -15.86425 -47.90805 3483 ft 16 kts 266°
2026-05-06 01:41 -15.86430 -47.90887 3480 ft 18 kts 266°
2026-05-06 01:41 -15.86440 -47.91035 3472 ft 23 kts 266°
2026-05-06 01:42 -15.86451 -47.91204 3469 ft 24 kts 266°
2026-05-06 01:42 -15.86466 -47.91441 3466 ft 26 kts 266°
2026-05-06 01:42 -15.86472 -47.91547 3465 ft 18 kts 266°
2026-05-06 01:42 -15.86481 -47.91676 3466 ft 18 kts 266°
2026-05-06 01:43 -15.86496 -47.91797 3468 ft 16 kts 239°
2026-05-06 01:43 -15.86592 -47.91801 3471 ft 14 kts 143°
2026-05-06 01:43 -15.86643 -47.91720 3471 ft 14 kts 151°
2026-05-06 01:43 -15.86735 -47.91708 3472 ft 10 kts 180°
2026-05-06 01:44 -15.86751 -47.91759 3472 ft 5 kts 269°
2026-05-06 01:44 -15.86751 -47.91761 3472 ft 0 kts 268°